Orbital Elements at Epoch 2459200.5 (2020-Dec-17.0) TDB
Reference: JPL 17 (heliocentric ecliptic J2000)
Element | Value | Uncertainty (1-sigma) | Units |
e | .2171624162701535 | 7.3612e-08 | |
a | 2.679431706791525 | 1.2795e-08 | au |
q | 2.097559843113816 | 1.9605e-07 | au |
i | 10.85518088265582 | 7.2227e-06 | deg |
node | 352.8373853286011 | 2.0544e-05 | deg |
peri | 14.10434681279061 | 2.3625e-05 | deg |
M | 98.69832508332331 | 9.2429e-06 | deg |
tp | 2458761.292500413544 (2019-Oct-04.79250041) | 4.0956e-05 | TDB |
period | 1601.99982844329 4.39 | 1.1475e-05 3.142e-08 | d yr |
n | .2247191251885604 | 1.6096e-09 | deg/d |
Q | 3.261303570469235 | 1.5574e-08 | au |
|
| | Orbit Determination Parameters
Additional Information
|